Regional Weather Roundup
Issued by NWS

Home | Current Version | Previous Version | Graphics & Text | Print | Product List | Glossary On
Versions: 1 2 3 4 5 6 7 8 9 10 11 12 13 14 15 16 17 18 19 20 21 22 23 24 25 26 27 28 29 30 31 32 33 34 35 36 37 38 39 40 41 42 43 44 45 46 47 48 49 50
000
ASUS43 KDMX 010207
RWRIA

WEATHER ROUNDUP FOR IOWA
NATIONAL WEATHER SERVICE DES MOINES IA
900 PM CDT TUE SEP 30 2014

NOTE: "FAIR" INDICATES FEW OR NO CLOUDS BELOW 12,000 FEET WITH NO
SIGNIFICANT WEATHER AND/OR OBSTRUCTIONS TO VISIBILITY.

* - THESE STATIONS ARE NOT NWS STATIONS...THUS NOT UNDER NWS
QUALITY CONTROL.  THEY ALSO DO NOT REPORT WEATHER SUCH
AS PRECIPITATION OR FOG.

IAZ001>003-012>014-020>022-031>034-043>046-010300-
   NORTHWEST IOWA

CITY           SKY/WX    TMP DP  RH WIND       PRES   REMARKS
CARROLL *      CLOUDY    61  61 100 SE15G22   29.84S FOG
CHEROKEE *     CLOUDY    61  61 100 SE12      29.82S
DENISON *      LGT RAIN  63  63 100 VRB5      29.80R
LE MARS *      CLOUDY    63  61  94 SE17      29.78F
ORANGE CITY *  CLOUDY    63  59  88 SE10G17   29.79F
SHELDON *      CLOUDY    61  61 100 SE15      29.79S
SIOUX CITY     PTCLDY    65  62  90 SE12      29.77F
SPENCER        CLOUDY    61  58  90 SE12      29.83R
STORM LAKE *   CLOUDY    61  59  94 SE10      29.85R FOG
$$

IAZ055>058-069>071-079>083-090>094-010300-
   SOUTHWEST IOWA

CITY           SKY/WX    TMP DP  RH WIND       PRES   REMARKS
ATLANTIC *     DRIZZLE   64  64 100 NE8       29.82F
AUDUBON *      HVY RAIN  63  57  82 E6        29.87R
CLARINDA *     MOCLDY    66  66 100 NE6G12    29.82F
COUNCIL BLFS * LGT RAIN  64  64 100 SE14      29.78F
CRESTON *      CLOUDY    66  63  88 E8        29.84R
HARLAN  *      LGT RAIN  64  64 100 NE3       29.87R
LAMONI         CLOUDY    67  62  84 E7        29.84R
RED OAK *      CLOUDY    66  64  94 NE7       29.82R
SHENANDOAH *   CLOUDY    66  64  94 N5        29.81R
$$

IAZ047>049-059>061-072>074-084-010300-
   CENTRAL IOWA

CITY           SKY/WX    TMP DP  RH WIND       PRES   REMARKS
AMES           LGT RAIN  62  57  83 N8        29.88R
ANKENY *       CLOUDY    66  57  72 SE10G17   29.85S
CHARITON *     MOCLDY    66  61  82 E12       29.86R
DES MOINES     CLOUDY    67  58  72 SE13      29.85R
GRINNELL*      MOCLDY    61  54  77 E12       29.90S
KNOXVILLE *    CLOUDY    64  57  77 E10G17    29.86R
MARSHALLTOWN   CLOUDY    60  53  77 E14       29.89R
PELLA *        MOCLDY    64  57  77 SE8       29.89S
PERRY *        HVY RAIN  61  61 100 N7        29.89R
$$

IAZ004>006-015-016-023>025-035-036-010300-
   NORTH CENTRAL IOWA

CITY           SKY/WX    TMP DP  RH WIND       PRES   REMARKS
ALGONA *       MOCLDY    59  57  94 SE13G22   29.85F
CLARION *      MOCLDY    59  57  94 SE13      29.89F
ESTHERVILLE    CLOUDY    58  57  97 SE13      29.82S
FORT DODGE *   CLOUDY    59  55  88 SE13G20   29.87F
MASON CITY     CLOUDY    59  52  77 SE3       29.95R
FOREST CITY *  RAIN      57  55  94 E5        29.89F
IOWA FALLS *   LGT RAIN  61  54  77 E6        29.92R
$$

IAZ007>011-017>019-026>030-037>042-050>054-066-010300-
   NORTHEAST IOWA

CITY           SKY/WX    TMP DP  RH WIND       PRES   REMARKS
CEDAR RAPIDS   CLEAR     55  50  82 E14       29.93R
CHARLES CITY * MOCLDY    55  46  71 E18G26    29.91F
CLINTON *      PTCLDY    54  45  71 E12       30.01R
DECORAH *      CLOUDY    50  45  81 E9        29.96S
DUBUQUE        CLEAR     48  45  87 NE8       30.00
MONTICELLO *   CLEAR     54  46  76 E8        29.97R
OELWEIN *      CLEAR     54  46  76 E12       29.96S
WATERLOO       CLOUDY    57  47  69 E14       29.91F
$$

IAZ064-065-067-068-078-010300-
   EAST CENTRAL IOWA

CITY           SKY/WX    TMP DP  RH WIND       PRES   REMARKS
IOWA CITY      PTCLDY    59  51  75 E9        29.95R
MT. PLEASANT * CLEAR     59  54  82 E7        29.92R
MUSCATINE *    CLEAR     61  52  72 E7        29.94S
$$

IAZ062-063-075>077-085>089-095>099-010300-
   SOUTHEAST IOWA

CITY           SKY/WX    TMP DP  RH WIND       PRES   REMARKS
BURLINGTON     PTCLDY    63  55  75 E9        29.93R
FAIRFIELD *    CLEAR     61  55  82 E8        29.92R
FORT MADISON * CLEAR     64  57  77 E7        29.93R
KEOKUK *       CLEAR     63  59  88 E12       29.90R
OSKALOOSA *      N/A     63  57  82 E12       29.90R
CENTERVILLE *  CLEAR     64  61  88 E9        29.88S
OTTUMWA        PTCLDY    62  55  77 E12       29.89R
WASHINGTON *   CLEAR     59  54  82 E9        29.93R
$$

ABBREVIATIONS USED IN REMARKS
   TC - TEMPERATURES IN CELSIUS
  WCI - WIND CHILL INDEX
   HX - HEAT INDEX
  VSB - VISIBILITY
$$




USA.gov is the U.S. government's official web portal to all federal, state and local government web resources and services.